TimeEDT,TemperatureF,Dew PointF,Humidity,Sea Level PressureIn,VisibilityMPH,Wind Direction,Wind SpeedMPH,Gust SpeedMPH,PrecipitationIn,Events,Conditions,WindDirDegrees,DateUTC
12:34 AM,54.0,35.8,50,29.89,10.0,SSE,11.5,19.6,N/A,,Overcast,160,2012-10-09 04:34:00
12:55 AM,53.8,36.0,51,29.89,10.0,SSE,12.7,18.4,N/A,,Mostly Cloudy,160,2012-10-09 04:55:00
1:15 AM,54.7,36.1,50,29.88,10.0,South,13.8,20.7,N/A,,Mostly Cloudy,170,2012-10-09 05:15:00
1:35 AM,54.5,36.7,51,29.88,10.0,South,15.0,19.6,N/A,,Scattered Clouds,170,2012-10-09 05:35:00
1:55 AM,54.9,37.4,52,29.87,10.0,SSE,12.7,24.2,N/A,,Mostly Cloudy,160,2012-10-09 05:55:00
2:15 AM,55.4,38.1,52,29.87,10.0,South,10.4,23.0,N/A,,Overcast,170,2012-10-09 06:15:00
2:55 AM,57.0,38.8,51,29.86,10.0,South,12.7,26.5,N/A,,Overcast,180,2012-10-09 06:55:00
3:15 AM,54.1,38.3,55,29.86,10.0,SSE,10.4,16.1,N/A,,Overcast,160,2012-10-09 07:15:00
3:56 AM,58.1,41.2,53,29.84,10.0,South,19.6,33.4,N/A,,Overcast,190,2012-10-09 07:56:00
4:16 AM,58.3,41.7,54,29.83,10.0,South,17.3,27.6,N/A,,Overcast,190,2012-10-09 08:16:00
4:31 AM,58.3,41.4,53,29.84,10.0,SSW,11.5,33.4,N/A,,Overcast,200,2012-10-09 08:31:00
4:51 AM,58.3,41.0,53,29.84,10.0,South,19.6,32.2,N/A,,Overcast,190,2012-10-09 08:51:00
5:11 AM,58.1,41.4,54,29.84,10.0,South,20.7,26.5,N/A,,Overcast,190,2012-10-09 09:11:00
5:31 AM,58.3,41.4,53,29.84,10.0,South,15.0,31.1,N/A,,Overcast,190,2012-10-09 09:31:00
5:51 AM,58.3,41.5,54,29.84,10.0,SSW,20.7,29.9,N/A,,Overcast,200,2012-10-09 09:51:00
6:11 AM,58.3,42.6,56,29.84,10.0,SSW,19.6,32.2,N/A,,Overcast,210,2012-10-09 10:11:00
6:31 AM,58.5,41.2,53,29.83,10.0,SSW,13.8,27.6,N/A,,Overcast,200,2012-10-09 10:31:00
6:52 AM,58.5,41.0,52,29.83,10.0,SSW,13.8,28.8,N/A,,Overcast,200,2012-10-09 10:52:00
7:12 AM,58.3,41.2,53,29.84,10.0,SSW,16.1,32.2,N/A,,Overcast,210,2012-10-09 11:12:00
7:52 AM,56.5,43.2,61,29.84,10.0,SSW,15.0,26.5,N/A,Rain,Light Rain,200,2012-10-09 11:52:00
8:12 AM,55.4,44.2,66,29.84,10.0,SSW,11.5,19.6,N/A,Rain,Light Rain,210,2012-10-09 12:12:00
8:32 AM,54.7,43.7,66,29.84,10.0,SW,12.7,25.3,N/A,Rain,Light Rain,230,2012-10-09 12:32:00
8:52 AM,54.5,44.2,68,29.84,10.0,SW,11.5,23.0,N/A,,Drizzle,220,2012-10-09 12:52:00
9:12 AM,55.4,44.4,67,29.83,10.0,SSW,13.8,24.2,N/A,Rain,Light Rain,210,2012-10-09 13:12:00
9:32 AM,55.9,44.2,65,29.83,10.0,SW,12.7,24.2,N/A,,Overcast,220,2012-10-09 13:32:00
9:53 AM,56.8,43.3,61,29.83,10.0,SW,15.0,27.6,N/A,,Mostly Cloudy,220,2012-10-09 13:53:00
10:13 AM,56.8,43.5,61,29.83,10.0,SSW,15.0,24.2,N/A,Rain,Light Rain,210,2012-10-09 14:13:00
10:33 AM,56.5,43.3,61,29.83,10.0,SSW,11.5,23.0,N/A,Rain,Light Rain,210,2012-10-09 14:33:00
10:53 AM,56.8,43.3,61,29.82,10.0,SSW,13.8,25.3,N/A,Rain,Light Rain,210,2012-10-09 14:53:00
11:13 AM,57.2,43.2,59,29.82,10.0,WSW,10.4,21.9,N/A,,Light Drizzle,240,2012-10-09 15:13:00
11:33 AM,58.3,43.2,57,29.82,10.0,SSW,13.8,21.9,N/A,,Overcast,210,2012-10-09 15:33:00
11:53 AM,58.1,42.8,57,29.81,10.0,SW,12.7,20.7,N/A,Rain,Light Rain,220,2012-10-09 15:53:00
12:14 PM,58.1,42.8,57,29.80,10.0,SSW,15.0,23.0,N/A,,Mostly Cloudy,200,2012-10-09 16:14:00
12:34 PM,57.2,42.4,58,29.80,10.0,SW,13.8,21.9,N/A,Rain,Light Rain,220,2012-10-09 16:34:00
12:54 PM,57.2,43.9,61,29.80,10.0,SSW,12.7,19.6,N/A,,Light Drizzle,200,2012-10-09 16:54:00
1:14 PM,57.2,44.6,63,29.79,10.0,SSW,16.1,20.7,N/A,Rain,Light Rain,200,2012-10-09 17:14:00
1:34 PM,57.6,44.6,62,29.78,10.0,SSW,15.0,23.0,N/A,,Mostly Cloudy,210,2012-10-09 17:34:00
1:54 PM,57.2,44.6,63,29.77,10.0,SSW,15.0,25.3,N/A,,Overcast,210,2012-10-09 17:54:00
2:14 PM,57.2,45.5,65,29.76,10.0,SSW,16.1,23.0,N/A,,Overcast,210,2012-10-09 18:14:00
2:34 PM,57.2,45.5,65,29.75,10.0,SSW,16.1,24.2,N/A,,Overcast,210,2012-10-09 18:34:00
2:54 PM,57.4,46.0,66,29.75,10.0,SSW,17.3,28.8,N/A,,Overcast,200,2012-10-09 18:54:00
3:15 PM,57.4,46.6,67,29.74,10.0,SSW,17.3,25.3,N/A,,Overcast,200,2012-10-09 19:15:00
3:35 PM,59.0,46.2,63,29.73,10.0,SSW,18.4,31.1,N/A,,Mostly Cloudy,200,2012-10-09 19:35:00
3:55 PM,59.0,45.7,61,29.73,10.0,SSW,19.6,31.1,N/A,,Scattered Clouds,210,2012-10-09 19:55:00
4:15 PM,58.5,47.1,66,29.73,10.0,SSW,16.1,29.9,N/A,,Mostly Cloudy,200,2012-10-09 20:15:00
4:35 PM,58.3,46.8,66,29.72,10.0,South,17.3,29.9,N/A,,Overcast,190,2012-10-09 20:35:00
4:55 PM,57.9,46.4,65,29.72,10.0,SSW,19.6,32.2,N/A,Rain,Light Rain,200,2012-10-09 20:55:00
5:15 PM,58.3,47.5,67,29.72,10.0,SSW,16.1,27.6,N/A,,Light Drizzle,200,2012-10-09 21:15:00
5:35 PM,58.5,48.2,69,29.72,10.0,SW,12.7,25.3,N/A,Rain,Light Rain,220,2012-10-09 21:35:00
5:55 PM,57.6,46.8,67,29.73,10.0,SW,12.7,33.4,N/A,Rain,Rain,230,2012-10-09 21:55:00
6:16 PM,54.3,46.8,76,29.73,10.0,West,13.8,24.2,N/A,Rain,Light Rain,280,2012-10-09 22:16:00
6:31 PM,52.9,46.9,80,29.73,10.0,WNW,12.7,21.9,N/A,Rain,Light Rain,290,2012-10-09 22:31:00
6:51 PM,53.6,46.4,77,29.73,10.0,West,12.7,20.7,N/A,,Overcast,270,2012-10-09 22:51:00
7:11 PM,52.9,46.6,79,29.74,10.0,West,12.7,24.2,N/A,,Drizzle,280,2012-10-09 23:11:00
7:31 PM,51.8,45.5,79,29.75,10.0,West,13.8,19.6,N/A,Rain,Light Rain,280,2012-10-09 23:31:00
7:51 PM,50.0,43.7,79,29.76,7.0,WNW,19.6,33.4,N/A,,Drizzle,300,2012-10-09 23:51:00
8:11 PM,49.1,43.9,82,29.77,10.0,WNW,12.7,28.8,N/A,Rain,Rain,300,2012-10-10 00:11:00
8:31 PM,48.4,43.5,83,29.79,7.0,WNW,13.8,27.6,N/A,Rain,Rain,290,2012-10-10 00:31:00
8:52 PM,46.9,41.4,81,29.79,7.0,WNW,11.5,20.7,N/A,Rain,Rain,290,2012-10-10 00:52:00
9:12 PM,46.2,40.1,79,29.79,10.0,WNW,13.8,25.3,N/A,Rain,Rain,290,2012-10-10 01:12:00
9:32 PM,45.5,39.2,79,29.79,10.0,NW,13.8,17.3,N/A,Rain,Rain,310,2012-10-10 01:32:00
9:52 PM,45.5,39.4,79,29.79,10.0,NW,5.8,-,N/A,Rain,Light Rain,320,2012-10-10 01:52:00
10:12 PM,46.0,39.4,78,29.78,10.0,WNW,5.8,-,N/A,Rain,Light Rain,290,2012-10-10 02:12:00
10:52 PM,47.1,39.7,76,29.79,10.0,West,6.9,-,N/A,Rain,Light Rain,270,2012-10-10 02:52:00
11:12 PM,46.9,38.7,73,29.79,10.0,WNW,8.1,17.3,N/A,,Light Drizzle,290,2012-10-10 03:12:00
11:33 PM,48.2,39.6,72,29.78,10.0,WNW,11.5,16.1,N/A,,Overcast,290,2012-10-10 03:33:00
11:53 PM,48.6,39.2,70,29.78,10.0,WNW,13.8,17.3,N/A,,Overcast,290,2012-10-10 03:53:00